W6DSP Weather Reports


Display with metric or nautical units.
time (UTC)temp
F
wind
direction
speed
MPH
gust
MPH
rain 1hr
in
rain 24hr
in
rain mn
in
humidity
%
barometer
mb
20260831070900 71 94 0.0 2.0 0.00 0.00 0.00 92 1016.9
20260831063341 71 94 0.0 0.0 0.00 0.00 0.00 92 1017.2
20260831045756 72 80 0.0 0.0 0.00 0.00 0.00 91 1017.4
20260831043328 72 80 0.0 0.0 0.00 0.00 0.00 91 1017.3
20260831040853 72 80 0.0 0.0 0.00 0.00 0.00 91 1017.2
20260831033321 72 80 0.0 0.0 0.00 0.00 0.00 90 1017.1
20260831030835 73 80 0.0 0.0 0.00 0.00 0.00 90 1016.9
20260831025606 73 80 0.0 0.0 0.00 0.00 0.00 89 1016.8
20260831024343 73 80 0.0 0.0 0.00 0.00 0.00 90 1016.7
20260831023133 73 79 0.0 2.0 0.00 0.00 0.00 90 1016.9
20260830233000 76 79 0.0 0.0 0.00 0.00 0.00 88 1017.0
20260830230512 77 79 0.0 0.0 0.00 0.00 0.00 84 1017.2
20260830225331 78 79 0.0 0.0 0.00 0.00 0.00 85 1017.3
20260830222953 78 79 0.0 0.0 0.00 0.00 0.00 84 1017.4
20260830221824 78 79 0.0 0.0 0.00 0.00 0.00 82 1017.6
20260830215416 80 80 0.0 2.0 0.00 0.00 0.00 77 1017.6
20260830214205 81 83 0.0 1.0 0.00 0.00 0.00 72 1017.5
20260830213019 80 82 0.0 0.0 0.00 0.00 0.00 76 1017.4
20260830210624 81 157 0.0 0.0 0.00 0.00 0.00 75 1017.1
20260830205417 80 178 1.0 9.0 0.00 0.00 0.00 73 1017.2
20260830202942 83 63 3.0 11.0 0.00 0.00 0.00 67 1016.9
20260830200535 83 137 1.0 11.0 0.00 0.00 0.00 67 1017.3
20260830195317 82 121 1.0 11.0 0.00 0.00 0.00 69 1017.6
20260830190524 81 213 1.0 14.0 0.00 0.00 0.00 74 1017.2
20260830184133 80 114 1.0 12.0 0.00 0.00 0.00 75 1017.3
20260830172929 74 153 0.0 4.0 0.00 0.00 0.00 86 1018.8
20260830170524 72 84 4.0 11.0 0.00 0.00 0.00 87 1018.5
20260830160502 72 159 0.0 0.0 0.00 0.00 0.00 87 1020.7
20260830142826 70 159 0.0 2.0 0.00 0.00 0.00 89 1019.7
20260830141558 70 159 0.0 0.0 0.00 0.00 0.00 88 1019.5
20260830140429 70 159 0.0 0.0 0.00 0.00 0.00 88 1019.4
20260830135206 69 159 0.0 0.0 0.00 0.00 0.00 87 1019.2
20260830134023 69 159 0.0 0.0 0.00 0.00 0.00 87 1018.9
20260830132808 69 159 0.0 0.0 0.00 0.00 0.00 87 1018.8
20260830131549 69 159 0.0 0.0 0.00 0.00 0.00 86 1018.7
20260830130413 70 159 0.0 0.0 0.00 0.00 0.00 84 1018.8
20260830122817 69 131 0.0 2.0 0.00 0.00 0.00 85 1018.4
20260830113909 68 166 0.0 1.0 0.00 0.00 0.00 87 1017.7
20260830111431 67 146 0.0 4.0 0.00 0.00 0.00 88 1018.1
20260830103845 67 145 0.0 0.0 0.00 0.00 0.00 90 1018.4
20260830101533 67 145 0.0 2.0 0.00 0.00 0.00 89 1018.5
20260830100313 67 145 0.0 0.0 0.00 0.00 0.00 89 1019.0
20260830095109 67 145 0.0 0.0 0.00 0.00 0.00 89 1019.0
20260830090351 67 145 0.0 0.0 0.00 0.00 0.00 88 1018.4
20260830085136 67 124 0.0 0.0 0.00 0.00 0.00 88 1018.3
20260830083930 67 124 0.0 0.0 0.00 0.00 0.00 87 1018.3
20260830080317 67 111 0.0 3.0 0.00 0.00 0.00 88 1018.1